Home   Weather   Utahuanta   Past weeks
Flag for Peru

Past Weather in Utahuanta, Arequipa, Peru — Yesterday and Last 2 Weeks

Now
54 °F

Clear.


Feels Like: 50 °F
Forecast: 72 / 44 °F
Wind: 12 mph from West

Location: Arequipa Airport

Current Time: Oct 13, 2019 at 7:40:16 pm

Latest Report: Oct 13, 2019 at 7:00 pm


Visibility: 10 mi

Pressure: 30.30 "Hg

Humidity: 63%

Dew Point: 41 °F

Location of UtahuantaLocation

Past Weather in Utahuanta — Graph

°F

Utahuanta Temperature Yesterday

Maximum temperature yesterday: 73 °F (at 12:00 pm)
Minimum temperature yesterday: 48 °F (at 4:00 am)
Average temperature yesterday: 59 °F

High & Low Weather Summary for the Past Weeks

 TemperatureHumidityPressure
High73 °F (Oct 12, 12:00 pm)82% (Oct 1, 9:00 pm)30.39 "Hg (Oct 1, 9:00 pm)
Low43 °F (Oct 6, 5:00 am)4% (Oct 7, 8:00 am)30.18 "Hg (Oct 10, 2:00 pm)
Average58 °F34%30.28 "Hg
* Reported Sep 28 6:00 pm — Oct 13 6:00 pm, Utahuanta. Weather by CustomWeather, © 2019

Note: Actual official high and low records may vary slightly from our data, if they occured in-between our weather recording intervals... More about our weather records

Advertising

Utahuanta Weather History for the Previous 24 Hours

Scroll right to see more
 ConditionsComfort  
Time TempWeatherWind HumidityBarometerVisibility
6:00 pm
Sun, Oct 13
63 °FPassing clouds.7 mph30%30.27 "HgN/A
5:00 pm66 °FScattered clouds.9 mph28%30.24 "HgN/A
4:00 pm68 °FScattered clouds.10 mph24%30.24 "HgN/A
3:00 pm70 °FScattered clouds.8 mph17%30.24 "HgN/A
2:00 pm72 °FScattered clouds.13 mph17%30.24 "Hg5 mi
1:00 pm72 °FPassing clouds.15 mph16%30.24 "HgN/A
12:00 pm72 °FPassing clouds.10 mph15%30.27 "HgN/A
11:00 am72 °FPassing clouds.7 mph14%30.27 "HgN/A
10:00 am68 °FSunny.5 mph17%30.27 "Hg10 mi
9:00 am66 °FSunny.3 mph17%30.30 "Hg10 mi
8:00 am64 °FPassing clouds.5 mph19%30.27 "HgN/A
7:00 am61 °FSunny.2 mph23%30.24 "Hg10 mi
6:00 am50 °FSunny.2 mph30%30.21 "Hg10 mi
5:00 am48 °FClear.1 mph40%30.21 "Hg10 mi
4:00 am48 °FClear.6 mph40%30.21 "Hg10 mi
3:00 am50 °FClear.2 mph32%30.21 "Hg10 mi
2:00 am50 °FClear.3 mph35%30.21 "Hg10 mi
1:00 am50 °FClear.2 mph35%30.21 "Hg10 mi
12:00 am52 °FClear.3 mph35%30.24 "Hg10 mi
11:00 pm
Sat, Oct 12
50 °FClear.2 mph35%30.24 "Hg10 mi
10:00 pm54 °FClear.No wind30%30.27 "Hg10 mi
9:00 pm54 °FClear.No wind33%30.27 "Hg10 mi
8:00 pm54 °FClear.2 mph35%30.24 "Hg10 mi
7:00 pm55 °FClear.6 mph36%30.24 "Hg10 mi
Weather by CustomWeather, © 2019

See weather overview